User: anonymous   Login
Location: Unspecified
(0.0000°N, 0.0000°E)
Time: 19:31:00
(UTC+00:00)
Language:

FALCON 9 R/B - Orbit

View from above orbital plane
View from above orbital plane
View from above satellite
View from above satellite

Ground track
Ground track

The orbit data is extracted from the following two-line orbital elements,

1 39271U 13055G   19341.49276539  .00002578  00000-0  61485-4 0  9999
2 39271  80.9658 114.2711 0595814  29.8039 333.5717 14.46398567322829
Epoch (UTC): 07 December 2019 11:49:34
Eccentricity: 0.0595814
inclination: 80.9658°
perigee height: 313 km
apogee height: 1161 km
right ascension of ascending node: 114.2711°
argument of perigee: 29.8039°
revolutions per day: 14.46398567
mean anomaly at epoch: 333.5717°
orbit number at epoch: 32282

The dashed part of the orbit path shows where the satellite is in the earth's shadow,  

DLR